Flag for Germany Weather past 2 weeks in Bühl, Baden-Württemberg, Germany

Now
28 °F

Light snow. Broken clouds.


Feels Like: 15 °F
Forecast: 9 / 31 °F
Wind: 20 mph from Northeast

Location: Karlsruhe - Baden Wurttemberg

Current Time: Dec 28, 2014 at 9:09:46 AM

Latest Report: Dec 28, 2014 at 8:20 AM


Visibility: 6 mi

Pressure: 29.86 "Hg

Humidity: 93%

Dew point: 27 °F

Location of BühlLocation

Historic Weather in Bühl — Graph

°F

Bühl temperature yesterday

Maximum temperature yesterday: 39 °F (at 12:20 PM)
Minimum temperature yesterday: 32 °F (at 6:20 AM)
Average temperature yesterday: 36 °F

Past Weeks' High & Low Weather Summary

 TemperatureHumidityPressure
High54 °F (Dec 18, 5:50 PM)100% (Dec 14, 3:20 PM)30.54 "Hg (Dec 14, 3:20 PM)
Low28 °F (Dec 28, 7:20 AM)50% (Dec 15, 2:50 PM)29.39 "Hg (Dec 27, 4:50 PM)
Average43 °F80%30.12 "Hg
* Reported Dec 13 7:20 AM — Dec 28 7:50 AM, Bühl, Weather by CustomWeather, © 2014

Note: Actual official high and low records may vary slightly from our data, if they occured in-between our weather recording intervals... More about our weather records

Advertising

Bühl weather history for previous 24 hours

 ConditionsComfort  
Time TempWeatherWind HumidityBarometerVisibility
7:50 AM
Dec 28
28 °FPartly cloudy.16 mph93%29.83 "Hg6 mi
7:20 AM28 °FSnow. Partly cloudy.16 mph93%29.80 "Hg5 mi
6:50 AM30 °FLight snow. Partly cloudy.20 mph80%29.77 "HgN/A
6:20 AM30 °FSnow. Passing clouds.20 mph86%29.74 "Hg4 mi
5:50 AM30 °FPassing clouds.18 mph86%29.71 "HgN/A
5:20 AM30 °FPassing clouds.17 mph86%29.71 "HgN/A
10:50 PM
Dec 27
34 °FLight snow. Partly cloudy.9 mph93%29.47 "Hg5 mi
10:20 PM32 °FLight snow. Partly cloudy.9 mph100%29.47 "Hg4 mi
9:50 PM34 °FLight snow. Partly cloudy.9 mph93%29.45 "Hg5 mi
9:20 PM32 °FLight snow. Partly cloudy.7 mph100%29.45 "Hg5 mi
8:50 PM34 °FSnow. Passing clouds.8 mph93%29.45 "Hg4 mi
8:20 PM36 °FRain. Passing clouds.13 mph93%29.42 "Hg4 mi
7:50 PM36 °FRain. Passing clouds.10 mph93%29.42 "Hg4 mi
7:20 PM36 °FRain. Passing clouds.14 mph93%29.42 "Hg4 mi
6:50 PM37 °FRain. Passing clouds.20 mph87%29.39 "Hg4 mi
6:20 PM37 °FRain. Passing clouds.22 mph93%29.39 "Hg4 mi
5:50 PM37 °FRain. Passing clouds.22 mph93%29.39 "Hg4 mi
5:20 PM37 °FRain. Passing clouds.21 mph93%29.39 "Hg4 mi
4:50 PM37 °FRain. Passing clouds.22 mph93%29.39 "Hg4 mi
4:20 PM37 °FRain. Partly sunny.21 mph93%29.42 "Hg4 mi
3:50 PM37 °FRain. Partly sunny.17 mph93%29.42 "Hg4 mi
3:20 PM39 °FRain. Partly sunny.22 mph87%29.42 "Hg4 mi
2:50 PM39 °FRain. Partly sunny.17 mph87%29.42 "Hg4 mi
2:20 PM39 °FLight rain. Broken clouds.20 mph87%29.45 "HgN/A
1:50 PM39 °FLight rain. Broken clouds.16 mph87%29.45 "HgN/A
1:20 PM39 °FLight rain. Broken clouds.16 mph87%29.45 "HgN/A
12:50 PM39 °FLight rain. Broken clouds.15 mph87%29.45 "HgN/A
12:20 PM39 °FLight rain. Partly sunny.18 mph87%29.47 "HgN/A
11:50 AM37 °FLight rain. More clouds than sun.22 mph93%29.47 "HgN/A
11:20 AM37 °FBroken clouds.18 mph93%29.47 "HgN/A
10:50 AM37 °FLight rain. Broken clouds.18 mph87%29.47 "HgN/A
10:20 AM36 °FLight rain. Mostly cloudy.18 mph93%29.50 "HgN/A
9:50 AM36 °FRain. Partly sunny.16 mph93%29.53 "Hg4 mi
9:20 AM34 °FRain. Low clouds.3 mph93%29.56 "Hg6 mi
Weather by CustomWeather, © 2014

See weather overviewHow to use our weather pages